Powrót do katalogu

STARLINK-5736

AktywnyŁącznośćVLEO
NORAD 55584·PAYLOAD·🇺🇸 United States

Wystrzelony Feb 12, 2023 z Cape Canaveral Space Force Station

Loading…

Następne Przeloty (najbliższe 24 godziny)

TLE

ŚwieżeSource: CelesTrak SupGP

Epoka: Sep 14, 2026, 21:42 UTC

1 55584C 23020R   26257.90465278  .00010753  00000+0  38939-3 0  2574
2 55584  43.0013  17.0504 0001505 275.7871 158.3029 15.27579391    13

Śledź STARLINK-5736 w czasie rzeczywistym z AllMySat

Download on the App Store